Stations météo

Publicité
Angers, France (7230): Température de l'air & dewpoint: 19.02.2018 08:00:00 - 25.02.2018 08:00:00 (CET)Angers, France (7230): Température de l'air 5cm: 19.02.2018 08:00:00 - 25.02.2018 08:00:00 (CET)Angers, France (7230): Température de l'air -20cm: 19.02.2018 08:00:00 - 25.02.2018 08:00:00 (CET)Angers, France (7230): Vitesse du vent & gusts: 19.02.2018 08:00:00 - 25.02.2018 08:00:00 (CET)Angers, France (7230): Direction du vent: 19.02.2018 08:00:00 - 25.02.2018 08:00:00 (CET)Angers, France (7230): reduced air pressure: 19.02.2018 08:00:00 - 25.02.2018 08:00:00 (CET)Angers, France (7230): visibility: 19.02.2018 08:00:00 - 25.02.2018 08:00:00 (CET)Angers, France (7230): Ensoleillement: 19.02.2018 08:00:00 - 25.02.2018 08:00:00 (CET)Angers, France (7230): Quantités de précipitations: 19.02.2018 08:00:00 - 25.02.2018 08:00:00 (CET)
Date & Time tt [°C] td [°C] tt 5cm [°C] tt -20cm [°C] ff [km/h] ff [knt] fx [km/h] fx [knt] dd ppp [hPa] vv [km] sd [min] rr [mm]
25.02.2018 08:00:00 -0,8 -6,2 -1,7 4,4 16 9 31 17 ENE 1018,8 20 0 0,0
25.02.2018 07:00:00 -0,3 -5,7 -1,2 4,5 16 9 32 17 ENE 1018,1 20 0 0,0
25.02.2018 06:00:00 0,3 -5,3 -0,6 4,6 18 10 34 18 ENE 1017,7 20 0 0,0
25.02.2018 05:00:00 0,4 -5,4 -1,3 4,6 13 7 26 14 ENE 1017,4 20 0 0,0
25.02.2018 04:00:00 0,1 -5,7 -1,5 4,7 10 6 22 12 NE 1017,1 20 0 0,0
25.02.2018 03:00:00 0,2 -5,6 -1,1 4,8 10 6 23 12 ENE 1016,9 17 0 0,0
25.02.2018 02:00:00 0,6 -5,0 -0,7 4,9 14 8 27 14 ENE 1016,6 14 0 0,0
25.02.2018 01:00:00 0,6 -4,1 -1,0 4,9 14 7 23 12 NE 1016,5 11 0 0,0
25.02.2018 00:00:00 0,7 -3,2 -0,6 5,1 11 6 20 11 NE 1016,3 8 0 0,0
24.02.2018 23:00:00 1,2 -2,9 -0,4 5,1 11 6 18 10 NE 1016,3 9 0 0,0
24.02.2018 22:00:00 1,6 -2,9 0,0 5,2 9 5 19 10 NE 1016,0 9 0 0,0
24.02.2018 21:00:00 1,9 -2,8 0,0 5,3 10 5 24 13 ENE 1015,8 10 0 0,0
24.02.2018 20:00:00 2,5 -2,8 0,8 5,3 11 6 28 15 ENE 1015,9 10 0 0,0
24.02.2018 19:00:00 3,3 -2,9 2,0 5,3 13 7 32 17 E 1015,5 11 16 0,0
24.02.2018 18:00:00 4,7 -2,6 4,8 5,2 14 8 29 15 ENE 1014,7 12 60 0,0
24.02.2018 17:00:00 5,7 -2,7 8,4 5,1 15 8 30 16 NE 1014,0 13 60 0,0
24.02.2018 16:00:00 6,0 -2,6 9,9 4,9 16 9 26 14 NE 1013,8 15 60 0,0
24.02.2018 15:00:00 5,7 -2,4 9,8 4,7 16 8 26 14 NNE 1013,8 14 60 0,0
24.02.2018 14:00:00 5,4 -2,9 9,5 4,5 13 7 26 14 ENE 1014,1 13 60 0,0
24.02.2018 13:00:00 4,1 -3,2 7,7 4,4 14 8 28 15 NE 1014,4 13 60 0,0
24.02.2018 12:00:00 3,0 -3,6 5,6 4,4 14 8 27 14 ENE 1014,6 13 60 0,0
24.02.2018 11:00:00 1,8 -3,7 3,3 4,5 17 9 29 16 ENE 1014,8 13 60 0,0
24.02.2018 10:00:00 0,3 -4,3 0,8 4,5 16 9 27 15 ENE 1014,5 13 60 0,0
24.02.2018 09:00:00 -0,6 -4,5 -1,8 4,6 13 7 27 15 ENE 1014,4 12 35 0,0
24.02.2018 08:00:00 -1,0 -4,5 -2,0 4,7 17 9 26 14 ENE 1014,1 13 0 0,0
24.02.2018 07:00:00 -1,0 -4,4 -2,1 4,8 15 8 25 13 ENE 1013,9 14 0 0,0
24.02.2018 06:00:00 -1,2 -4,4 -2,4 4,8 11 6 23 13 NE 1013,8 14 0 0,0
24.02.2018 05:00:00 -1,0 -4,5 -2,3 4,9 11 6 20 11 ENE 1013,5 16 0 0,0
24.02.2018 04:00:00 -1,0 -4,4 -2,4 5,0 11 6 24 13 NE 1013,3 17 0 0,0
24.02.2018 03:00:00 -1,0 -4,2 -2,1 5,1 10 6 20 11 NE 1013,4 16 0 0,0
24.02.2018 02:00:00 -0,8 -4,2 -2,2 5,2 10 5 20 11 NE 1013,4 17 0 0,0
24.02.2018 01:00:00 -0,4 -3,9 -3,0 5,3 12 6 18 10 NE 1013,4 15 0 0,0
24.02.2018 00:00:00 0,8 -4,2 -2,8 5,4 5 3 23 13 ENE 1013,8 17 0 0,0
23.02.2018 23:00:00 2,3 -4,2 1,4 5,4 13 7 31 17 E 1013,9 19 0 0,0
23.02.2018 22:00:00 2,7 -4,1 2,3 5,5 13 7 36 19 E 1014,1 20 0 0,0
23.02.2018 21:00:00 2,8 -4,0 1,3 5,5 17 9 33 18 E 1014,1 20 0 0,0
23.02.2018 20:00:00 2,3 -3,6 0,8 5,6 11 6 26 14 E 1014,0 20 0 0,0
23.02.2018 19:00:00 2,9 -3,7 1,5 5,6 12 7 34 18 E 1013,6 20 14 0,0
23.02.2018 18:00:00 4,4 -3,6 4,7 5,5 16 9 29 15 E 1013,0 20 60 0,0
23.02.2018 17:00:00 5,5 -2,8 7,9 5,4 15 8 33 18 E 1012,7 20 60 0,0
23.02.2018 16:00:00 5,7 -2,7 8,8 5,2 19 10 32 18 ENE 1012,9 19 60 0,0
23.02.2018 15:00:00 5,4 -2,9 9,1 5,1 16 9 34 18 NE 1013,4 19 60 0,0
23.02.2018 14:00:00 4,6 -3,0 8,2 4,9 15 8 34 18 ENE 1014,1 19 60 0,0
23.02.2018 13:00:00 3,7 -3,6 7,0 4,8 16 9 29 15 ENE 1014,8 18 60 0,0
23.02.2018 12:00:00 2,5 -3,4 5,2 4,8 16 8 32 17 NE 1015,4 16 60 0,0
23.02.2018 11:00:00 1,3 -4,6 3,6 4,9 18 10 31 17 ENE 1015,7 17 60 0,0
23.02.2018 10:00:00 0,0 -4,4 1,5 5,0 18 10 28 15 ENE 1015,8 14 60 0,0
23.02.2018 09:00:00 -1,0 -4,5 -2,3 5,1 13 7 24 13 NE 1015,9 12 36 0,0
23.02.2018 08:00:00 -1,5 -4,5 -2,5 5,1 12 6 25 14 NE 1015,9 11 0 0,0
23.02.2018 07:00:00 -1,4 -4,6 -3,0 5,2 13 7 23 12 NE 1015,9 12 0 0,0
23.02.2018 06:00:00 -1,6 -4,4 -3,2 5,4 10 5 21 12 NNE 1015,9 12 0 0,0
23.02.2018 05:00:00 -1,3 -4,5 -3,0 5,5 8 4 15 8 NNE 1015,9 14 0 0,0
23.02.2018 04:00:00 -1,1 -4,1 -2,7 5,6 9 5 23 12 N 1016,0 15 0 0,0
23.02.2018 03:00:00 -0,2 -3,9 -2,0 5,7 14 8 26 14 NE 1016,4 18 0 0,0
23.02.2018 02:00:00 -0,3 -3,7 -2,0 5,7 11 6 23 12 NNE 1016,7 16 0 0,0
23.02.2018 01:00:00 -0,5 -3,7 -2,2 5,9 8 4 15 8 NNE 1017,1 13 0 0,0
23.02.2018 00:00:00 -0,3 -3,5 -2,4 6,0 7 4 24 13 N 1017,3 10 0 0,0
22.02.2018 23:00:00 1,2 -3,1 -0,2 6,1 14 8 26 14 NE 1017,6 11 0 0,0
22.02.2018 22:00:00 1,4 -3,3 -0,1 6,2 11 6 27 14 NE 1017,6 11 0 0,0
22.02.2018 21:00:00 2,4 -3,1 1,0 6,3 14 7 29 16 ENE 1017,5 11 0 0,0
22.02.2018 20:00:00 3,3 -3,1 1,9 6,4 16 9 34 18 NE 1017,3 12 0 0,0
22.02.2018 19:00:00 3,8 -3,3 2,1 6,4 14 8 34 18 NE 1016,6 13 12 0,0
22.02.2018 18:00:00 5,1 -4,2 5,9 6,3 18 10 35 19 NNE 1016,3 16 60 0,0
22.02.2018 17:00:00 6,1 -3,6 9,1 6,2 18 10 36 19 NE 1016,2 15 60 0,0
22.02.2018 16:00:00 6,3 -2,8 10,3 6,1 21 11 33 18 NNE 1016,3 11 60 0,0
22.02.2018 15:00:00 5,9 -3,0 10,1 5,9 19 11 30 16 NNE 1016,9 10 60 0,0
22.02.2018 14:00:00 5,5 -1,9 8,8 5,8 16 9 31 17 NNE 1017,6 8 60 0,0
22.02.2018 13:00:00 4,3 -1,5 8,1 5,7 17 9 31 17 NNE 1018,3 7 60 0,0
22.02.2018 12:00:00 3,1 -2,0 6,6 5,7 16 9 26 14 NNE 1018,7 6 60 0,0
22.02.2018 11:00:00 1,9 -1,9 4,3 5,8 15 8 28 15 NE 1019,0 4,8 60 0,2
22.02.2018 10:00:00 0,7 -2,4 0,6 5,9 11 6 24 13 NNE 1019,3 4,1 60 0,0
22.02.2018 09:00:00 -1,1 -2,7 -4,4 6,0 7 4 11 6 N 1019,5 3,1 35 0,0
22.02.2018 08:00:00 -2,1 -3,4 -4,5 6,1 5 3 11 6 NNW 1019,1 3,0 0 0,0
22.02.2018 07:00:00 -1,4 -3,3 -3,5 6,3 5 3 14 8 N 1019,0 3,4 0 0,0
22.02.2018 06:00:00 -1,4 -3,1 -3,4 6,4 5 3 13 7 N 1019,1 3,3 0 0,0
22.02.2018 05:00:00 -0,8 -2,7 -2,5 6,5 9 5 14 8 N 1019,2 3,3 0 0,0
22.02.2018 04:00:00 -0,6 -2,3 -2,2 6,6 8 4 18 10 N 1019,5 3,4 0 0,0
22.02.2018 03:00:00 0,1 -2,0 -0,9 6,8 11 6 22 12 NNE 1020,0 3,9 0 0,0
22.02.2018 02:00:00 0,5 -1,7 -1,2 6,9 11 6 23 12 NE 1020,3 4,3 0 0,0
22.02.2018 01:00:00 0,4 -1,8 -0,9 7,0 8 5 20 11 NNE 1020,8 4,5 0 0,0
22.02.2018 00:00:00 1,3 -1,6 0,0 7,2 10 5 23 12 NNE 1021,1 5 0 0,0
21.02.2018 23:00:00 1,7 -1,4 0,2 7,3 10 6 22 12 NE 1021,4 6 0 0,0
21.02.2018 22:00:00 2,7 -1,5 0,9 7,4 14 8 25 13 NE 1021,4 7 0 0,0
21.02.2018 21:00:00 2,4 -1,8 0,8 7,5 10 5 16 9 NE 1021,2 8 0 0,0
21.02.2018 20:00:00 3,4 -1,8 1,6 7,6 10 5 19 10 N 1020,9 9 0 0,0
21.02.2018 19:00:00 4,3 -1,7 2,6 7,7 10 5 27 15 NNE 1020,8 10 11 0,0
21.02.2018 18:00:00 5,7 -1,7 6,0 7,7 16 9 30 16 NNE 1020,7 12 60 0,0
21.02.2018 17:00:00 6,5 -2,2 9,1 7,7 20 11 34 18 NNE 1020,4 14 60 0,0
21.02.2018 16:00:00 6,8 -2,1 10,2 7,6 17 9 36 19 NE 1020,6 13 60 0,0
21.02.2018 15:00:00 6,7 -1,5 10,7 7,5 21 11 37 20 NE 1021,1 10 60 0,0
21.02.2018 14:00:00 6,7 -0,5 10,7 7,4 18 10 35 19 NNE 1021,8 10 60 0,0
21.02.2018 13:00:00 6,1 -0,6 10,3 7,3 18 10 31 17 NNE 1022,4 9 60 0,0
21.02.2018 12:00:00 5,5 -0,4 9,2 7,4 16 9 31 17 NE 1022,8 8 60 0,0
21.02.2018 11:00:00 4,4 0,9 6,3 7,4 18 10 30 16 NE 1022,9 5 60 0,0
21.02.2018 10:00:00 3,3 0,9 3,2 7,5 18 10 38 21 NE 1022,8 4,6 28 0,0
21.02.2018 09:00:00 2,9 0,6 2,2 7,6 18 10 32 17 NE 1022,5 4,9 34 0,0
21.02.2018 08:00:00 3,0 1,0 2,0 7,7 15 8 27 14 NE 1022,0 7 0 0,0
21.02.2018 07:00:00 3,2 1,6 1,6 7,8 11 6 19 10 NNE 1021,7 11 0 0,0
21.02.2018 06:00:00 4,0 1,5 2,8 7,9 14 7 23 12 NE 1021,4 18 0 0,0
21.02.2018 05:00:00 5,3 2,3 4,5 8,0 14 8 24 13 NE 1021,0 20 0 0,0
21.02.2018 04:00:00 6,1 3,8 5,6 8,1 11 6 23 12 NE 1020,9 20 0 0,0
21.02.2018 03:00:00 6,0 4,2 5,5 8,1 9 5 19 10 N 1020,9 20 0 0,0
21.02.2018 02:00:00 5,9 4,1 4,3 8,2 13 7 22 12 N 1020,9 20 0 0,0
21.02.2018 01:00:00 5,5 3,7 4,2 8,3 12 7 26 14 N 1020,9 20 0 0,0
21.02.2018 00:00:00 6,1 3,4 5,1 8,5 18 10 43 23 N 1020,5 20 0 0,0
20.02.2018 23:00:00 6,6 3,2 5,1 8,6 22 12 43 23 N 1020,6 20 0 0,0
20.02.2018 22:00:00 6,5 2,9 5,2 8,6 15 8 28 15 N 1020,2 20 0 0,0
20.02.2018 21:00:00 7,1 3,5 6,0 8,7 20 11 41 22 N 1020,2 20 0 0,0
20.02.2018 20:00:00 7,9 4,5 7,1 8,8 25 13 41 22 N 1019,9 20 0 0,0
20.02.2018 19:00:00 8,2 5,7 7,9 8,7 18 10 49 26 N 1019,7 20 0 0,0
20.02.2018 18:00:00 9,4 7,0 9,1 8,7 25 14 51 27 N 1019,1 20 2 0,0
20.02.2018 17:00:00 10,3 8,1 10,5 8,7 19 10 35 19 NNW 1018,6 20 0 0,0
20.02.2018 16:00:00 11,4 7,3 10,9 8,6 20 11 35 19 N 1018,6 20 0 0,0
20.02.2018 15:00:00 11,6 7,5 11,5 8,5 18 10 39 21 N 1018,9 20 6 0,0
20.02.2018 14:00:00 11,3 7,6 11,8 8,4 25 14 41 22 N 1019,2 20 0 0,0
20.02.2018 13:00:00 11,3 8,2 11,4 8,3 23 12 39 21 N 1019,2 20 0 0,0
20.02.2018 12:00:00 11,0 8,0 11,0 8,3 21 12 34 19 NNW 1019,1 20 1 0,0
20.02.2018 11:00:00 10,6 8,2 10,2 8,2 21 11 39 21 NNW 1018,9 20 0 0,0
20.02.2018 10:00:00 10,0 7,9 9,6 8,2 17 9 32 18 NNW 1018,7 20 19 0,0
20.02.2018 09:00:00 9,5 8,1 8,9 8,2 15 8 31 17 NNW 1018,2 18 7 0,0
20.02.2018 08:00:00 9,3 8,1 9,0 8,2 16 9 31 17 NNW 1017,8 15 0 0,0
20.02.2018 07:00:00 9,4 8,3 8,7 8,3 16 9 29 16 NW 1017,6 15 0 0,0
20.02.2018 06:00:00 9,1 8,2 8,5 8,2 14 7 31 17 NW 1017,3 14 0 0,0
20.02.2018 05:00:00 9,4 8,3 9,0 8,2 17 9 29 16 NW 1017,5 13 0 0,0
20.02.2018 04:00:00 9,6 8,5 9,1 8,2 17 9 32 17 NW 1017,5 12 0 0,0
20.02.2018 03:00:00 9,7 8,8 9,2 8,2 18 10 36 19 NW 1017,4 11 0 0,0
20.02.2018 02:00:00 9,8 8,9 9,2 8,2 18 10 32 17 NNW 1017,4 10 0 0,0
20.02.2018 01:00:00 9,7 9,1 9,3 8,2 18 10 32 17 NNW 1017,8 8 0 0,0
20.02.2018 00:00:00 9,6 9,0 9,3 8,2 15 8 26 14 NW 1017,6 9 0 0,0
19.02.2018 23:00:00 9,6 9,0 9,3 8,1 13 7 29 16 NNW 1017,8 10 0 0,0
19.02.2018 22:00:00 9,8 9,2 9,4 8,1 16 8 34 18 NNW 1017,9 9 0 0,0
19.02.2018 21:00:00 10,0 9,4 9,6 8,1 13 7 26 14 NNW 1017,8 12 0 0,0
19.02.2018 20:00:00 10,1 9,5 9,7 8,1 10 5 21 11 NW 1017,9 18 0 0,0
19.02.2018 19:00:00 10,1 9,6 9,7 8,0 9 5 16 8 NW 1018,0 3,5 0 0,2
19.02.2018 18:00:00 10,1 9,6 9,8 7,9 8 4 13 7 NW 1018,0 6 0 0,0
19.02.2018 17:00:00 10,0 9,7 9,9 7,9 5 3 10 6 NNW 1018,1 10 0 0,2
19.02.2018 16:00:00 9,8 9,3 9,9 7,8 6 3 9 5 WNW 1018,2 1,9 0 0,2
19.02.2018 15:00:00 9,7 9,2 9,7 7,7 6 3 11 6 WNW 1018,5 9 0 0,2
19.02.2018 14:00:00 9,4 8,6 9,4 7,6 6 3 10 6 NW 1018,9 15 0 0,2
19.02.2018 13:00:00 8,8 8,2 8,6 7,5 5 3 12 6 W 1019,3 12 0 0,0
19.02.2018 12:00:00 8,0 7,6 8,4 7,5 5 3 10 5 W 1019,5 9 0 0,2
19.02.2018 11:00:00 7,4 7,1 7,4 7,5 6 3 10 5 S 1019,4 9 0 0,0
19.02.2018 10:00:00 7,0 6,9 6,8 7,5 5 3 11 6 S 1019,6 2,5 0 0,0
19.02.2018 09:00:00 6,7 6,6 6,5 7,5 4 2 9 5 S 1019,6 1,8 0 0,0
19.02.2018 08:00:00 6,6 6,3 6,5 7,5 5 3 9 5 S 1019,6 2,0 0 0,2

tt = Température de l'air
td = dewpoint
tt 5cm = Température de l'air 5cm
tt -20cm = Température de l'air -20cm
ff = Vitesse du vent
fx = gusts
dd = Direction du vent
ppp = reduced air pressure
vv = visibility
sd = Ensoleillement
rr = Quantités de précipitations

stations d'obs. à proximité